EHI
0 0 0 0 0 0 0 0 0 0 0 0 0 0 0 0 0 0 0 0 0 0 0 0 0 0 0 0 0 0 0 0 0 0 0 0 0 0 0 0 0 0 0 0
0 0 0 0 0 0 0 0 0 0 0 0 0 0 0 0 0 0 0 0 0 0 0 0 0 0 0 0 0 0 0 0 0 0 0 0 0 0 0 0 0 0 0 0
0 0 0 0 0 0 0 0 0 0 0 0 0 0 0 0 0 0 0 0 0 0 0 0 0 0 0 0 0 0 0 0 0 0 0 0 0 0 0 0 0 0 0 0
0 0 0 0 0 0 0 0 0 0 0 0 0 0 0 0 0 0 0 0 0 0 0 0 0 0 0 0 0 0 0 0 0 0 0 0 0 0 0 0 0 0 0 0
0 0 0 0 0 0 0 0 0 0 0 0 0 0 0 0 0 0 0 0 0 0 0 0 0 0 0 0 0 0 0 0 0 0 0 0 0 0 0 0 0 0 0 0
0 0 0 0 0 0 0 0 0 0 0 0 0 0 0 0 0 0 0 0 0 0 0 0 0 0 0 0 0 0 0 0 0 0 0 0 0 0 0 0 0 0 0 0
0 0 0 0 0 0 0 0 0 0 0 0 0 0 0 0 0 0 0 0 0 0 0 0 0 0 0 0 0 0 0 0 0 0 0 0 0 0 0 0 0 0 0 0
0 0 0 0 0 0 0 0 0 0 0 0 0 0 0 0 0 0 0 0 0 0 0 0 0 0 0 0 0 0 0 0 0 0 0 0 0 0 0 0 0 0 0 0
0 0 0 0 0 0 0 0 0 0 0 0 0 0 0 0 0 0 0 0 0 0 0 0 0 0 0 0 0 0 0 0 0 0 0 0 0 0 0 0 0 0 0 0
0 0 0 0 0 0 0 0 0 0 0 0 0 0 0 0 0 0 0 0 0 0 0 1 1 0 0 0 0 0 0 0 0 0 0 0 0 0 0 0 0 0 0 0
0 0 0 0 0 0 0 0 0 0 0 0 0 0 0 0 0 0 0 0 0 0 0 1 1 0 0 0 0 0 0 0 0 0 0 0 0 0 0 0 0 0 0 0
0 0 0 0 0 0 0 0 0 0 0 0 0 0 0 0 0 0 0 0 0 0 0 0 0 0 0 0 0 0 0 0 0 0 0 0 0 0 0 0 0 0 0 0
0 0 0 0 0 0 0 0 0 0 0 0 0 0 0 0 0 0 0 0 0 0 0 0 0 0 0 0 0 0 0 0 0 0 0 0 0 0 0 0 0 0 0 0
0 0 0 0 0 0 0 0 0 0 0 0 0 0 0 0 0 0 0 0 0 0 0 0 0 0 0 0 1 0 0 0 0 0 0 0 0 0 0 0 0 0 0 0
0 0 0 0 0 0 0 0 0 0 0 0 0 0 0 0 0 0 0 0 0 0 0 0 0 0 0 0 0 0 0 0 0 0 0 0 0 0 0 0 0 0 0 0
0 0 0 0 0 0 0 0 0 0 0 0 0 0 0 0 0 0 0 0 0 0 0 0 0 0 0 0 0 0 0 0 0 0 0 0 0 0 0 0 0 0 0 0
0 0 0 0 0 0 0 0 0 0 0 0 0 0 0 0 0 0 0 0 0 0 0 0 0 0 0 0 0 0 0 0 0 0 0 0 0 0 0 0 0 0 0 0
0 0 0 0 0 0 0 0 0 0 0 0 0 0 0 0 0 0 0 0 0 0 0 0 0 0 0 0 0 0 0 0 0 0 0 0 0 0 0 0 0 0 0 0
0 0 0 0 0 0 0 0 0 0 0 0 0 0 0 0 0 0 0 0 0 0 0 0 0 0 0 0 0 0 0 0 0 0 0 0 0 0 0 0 0 0 0 0
0 0 0 0 0 0 0 0 0 0 0 0 0 0 0 0 0 0 0 0 0 0 0 0 0 0 0 0 0 0 0 0 0 0 0 0 0 0 0 0 0 0 0 0
0 0 0 0 0 0 0 0 0 0 0 0 0 0 0 0 0 0 0 0 0 0 0 0 0 0 0 0 0 0 0 0 0 0 0 0 0 0 0 0 0 0 0 0
0 0 0 0 0 0 0 0 0 0 0 0 0 0 0 0 0 0 0 0 0 0 0 0 0 0 0 0 0 0 0 0 0 0 0 0 0 0 0 0 0 0 0 0
0 0 0 0 0 0 0 0 0 0 0 0 0 0 0 0 0 0 0 0 0 0 0 0 0 0 0 0 0 0 0 0 0 0 0 0 0 0 0 0 0 0 0 0
0 0 0 0 0 0 0 0 0 0 0 0 0 0 0 0 0 0 0 0 0 0 0 0 0 0 0 0 0 0 0 0 0 0 0 0 0 0 0 0 0 0 0 0
0 0 0 0 0 0 0 0 0 0 0 0 0 0 0 0 0 0 0 0 0 0 0 0 0 0 0 0 0 0 0 0 0 0 0 0 0 0 0 0 0 0 0 0
0 0 0 0 0 0 0 0 0 0 0 0 0 0 0 0 0 0 0 0 0 0 0 0 0 0 0 0 0 0 0 0 0 0 0 0 0 0 0 0 0 0 0 0
0 0 0 0 0 0 0 0 0 0 0 0 0 0 0 0 0 0 0 0 0 0 0 0 0 0 0 0 0 0 0 0 0 0 0 0 0 0 0 0 0 0 0 0
Wind_Speed
8 6 7 9 9 8 10 11 12 10 9 7 2 4 6 7 8 9 10 11 10 9 8 8 7 6 6 6 5 5 6 7 7 7 8 8 9 9 9 10 10 10 10 11
10 9 9 11 11 11 10 9 9 10 9 3 1 3 5 7 9 10 11 11 10 10 9 8 8 7 6 6 5 5 6 7 7 8 8 9 9 9 9 10 10 10 10 11
12 9 9 12 8 7 6 6 7 8 5 2 2 4 6 8 9 10 10 10 10 10 9 8 8 7 6 6 5 6 7 7 7 8 9 9 10 10 10 10 10 10 10 11
10 8 11 5 1 4 6 7 6 6 4 2 2 2 4 6 8 9 9 9 9 9 9 8 8 7 6 5 6 6 7 7 8 8 9 9 9 10 10 9 9 9 10 11
8 10 10 6 4 4 6 8 5 4 3 2 2 4 8 10 10 9 9 9 8 9 9 8 7 7 6 6 6 7 7 7 8 8 9 9 10 10 9 9 10 10 10 10
7 9 9 2 5 1 5 7 1 2 4 3 5 7 4 6 10 11 10 9 9 9 8 8 8 7 7 7 7 7 7 7 7 8 9 10 10 10 9 9 10 10 10 10
9 8 7 4 4 4 6 5 7 5 6 5 7 9 4 3 7 9 10 10 10 9 9 8 8 8 8 7 7 7 6 7 7 8 9 10 10 9 10 10 10 10 11 11
6 8 3 6 0 4 8 10 9 9 8 8 9 10 7 6 7 8 9 11 11 10 9 8 9 9 8 8 7 6 6 7 8 8 9 8 9 9 10 10 10 10 10 10
4 3 5 5 5 7 9 10 11 11 11 10 10 10 9 9 8 9 10 10 10 11 10 9 9 9 9 8 7 6 7 8 8 9 8 9 9 10 9 9 9 8 8 9
6 5 3 5 7 8 9 10 11 11 10 9 9 9 8 7 7 8 8 9 9 10 10 9 10 10 10 8 7 7 8 8 8 8 9 8 7 8 8 8 8 8 8 8
8 4 3 5 11 12 11 10 10 9 8 8 7 7 7 6 6 6 6 6 7 9 9 9 9 9 9 8 8 8 9 8 8 9 8 7 8 8 9 9 8 9 10 10
4 6 6 7 10 10 10 11 11 11 11 10 9 8 7 6 5 4 4 4 5 7 8 8 8 8 8 8 9 9 9 9 8 7 6 7 8 8 9 11 10 11 14 13
3 4 5 5 8 9 10 11 12 12 13 12 12 11 10 8 6 5 4 3 4 5 6 6 6 7 8 9 10 10 10 9 7 7 7 7 7 8 9 8 13 16 17 17
3 5 7 8 8 10 11 11 12 13 14 13 12 12 11 10 8 8 7 6 4 4 5 6 7 8 8 8 9 10 10 9 9 8 8 8 8 8 8 9 9 8 10 16
8 8 9 8 9 10 11 11 12 13 13 13 13 12 12 11 10 9 8 7 6 6 6 7 8 8 7 8 9 10 10 9 8 8 8 8 8 8 8 9 9 9 8 6
9 10 9 10 11 11 12 13 12 12 12 12 12 12 11 10 9 9 9 8 8 8 8 8 8 9 8 8 9 9 10 11 9 8 8 8 8 8 8 8 9 8 8 8
8 9 9 10 10 10 11 11 11 11 11 12 12 12 11 11 11 10 11 11 10 9 9 9 9 9 9 9 10 9 9 8 11 9 10 9 8 8 8 8 8 8 8 4
8 7 6 6 7 9 9 10 10 11 11 11 11 11 11 11 11 12 12 12 11 11 10 11 12 13 12 10 9 9 9 8 8 8 8 7 7 8 8 8 8 9 8 4
6 5 5 6 7 7 8 9 9 10 10 10 11 11 10 11 11 12 12 13 12 12 12 13 13 13 13 10 8 8 9 9 8 7 8 7 7 8 8 8 8 8 7 6
4 5 5 6 7 8 9 9 10 9 9 10 10 11 11 11 12 12 13 12 10 11 13 14 15 13 12 9 7 8 9 9 9 8 8 7 7 7 7 7 7 7 7 6
4 6 7 8 8 9 9 9 9 10 10 10 11 11 12 12 13 12 12 12 11 11 13 13 12 11 10 10 9 10 9 8 7 7 7 7 7 7 6 6 6 6 6 5
6 8 9 10 10 10 10 10 10 10 11 11 12 12 13 13 14 13 12 10 11 10 11 12 12 11 12 13 11 10 8 7 7 6 5 6 6 5 5 5 6 5 5 5
8 9 10 10 11 11 11 11 11 11 11 12 13 13 13 12 12 12 12 9 11 11 12 12 11 11 13 12 10 8 6 5 6 5 4 5 5 4 4 5 5 5 4 5
9 10 10 11 11 12 12 12 12 11 13 14 13 13 13 12 11 10 10 10 9 10 12 10 8 10 11 9 7 6 5 4 4 4 4 3 3 3 4 4 5 5 4 5
10 11 12 12 12 11 12 13 13 13 13 11 13 14 12 10 11 11 11 13 12 11 12 9 7 7 8 6 5 5 4 4 4 4 3 3 3 3 3 3 4 4 4 4
10 11 10 11 11 11 11 11 10 10 11 12 11 11 11 11 12 11 10 12 14 11 10 8 7 7 6 5 4 3 3 2 2 2 3 3 3 3 3 4 5 4 4 4
11 11 9 10 10 10 10 10 11 11 11 12 12 12 12 12 11 11 12 11 10 9 8 7 7 6 5 5 4 4 3 3 3 3 3 3 4 3 4 5 4 4 5 5
Wind_Direction
273 279 272 278 280 264 254 274 284 296 297 301 286 225 207 193 189 191 189 191 196 199 198 202 207 216 228 244 253 263 270 276 282 285 288 289 291 291 291 290 288 288 287 285
262 257 258 268 273 269 261 265 270 279 285 328 69 191 193 194 195 200 201 201 202 204 204 205 209 218 226 237 249 254 265 277 287 290 288 291 293 292 292 290 288 287 284 284
266 261 258 261 261 262 254 254 271 286 319 59 203 204 209 206 208 213 211 208 207 206 206 207 209 214 225 236 249 257 267 277 284 286 287 292 296 296 295 293 289 287 285 284
264 262 259 279 34 280 277 275 269 274 282 259 258 233 228 222 220 220 218 213 209 207 203 203 205 208 220 234 243 258 269 277 284 286 288 293 295 294 294 291 290 288 287 286
262 259 257 255 209 234 261 276 273 260 260 234 183 228 224 211 219 225 222 215 211 210 204 200 204 206 213 234 247 259 269 277 283 288 291 292 293 295 295 292 289 288 286 287
245 265 270 304 83 86 263 262 172 228 267 253 202 259 277 175 202 216 218 211 205 202 201 196 201 201 217 237 249 262 273 280 285 285 287 290 292 293 292 289 286 287 289 288
247 255 263 46 83 207 251 357 12 321 296 269 244 269 310 200 200 211 213 209 202 202 205 203 196 197 217 239 253 267 276 278 277 279 282 283 286 286 286 285 288 289 288 285
242 253 275 82 23 295 344 339 326 315 303 286 271 271 267 246 224 216 213 208 203 204 208 202 196 199 218 235 250 260 265 268 272 276 282 288 285 283 282 283 282 280 281 284
278 301 34 14 339 340 335 320 318 314 309 296 279 272 263 251 239 229 221 214 209 208 209 202 198 205 223 233 240 247 254 261 268 275 279 281 280 281 279 275 277 284 289 291
273 276 342 4 6 0 346 330 321 317 311 305 291 285 280 265 251 241 232 223 214 212 213 207 202 207 220 229 233 241 250 259 263 267 271 273 276 276 279 284 285 288 290 293
262 298 321 48 18 358 352 351 349 348 346 338 324 316 311 299 286 272 254 236 224 218 219 216 209 212 218 219 224 239 248 254 260 266 272 280 275 275 281 285 296 294 297 299
327 21 348 11 12 8 15 20 19 18 22 21 13 1 355 350 342 319 293 262 241 236 232 224 215 216 218 216 217 230 244 249 257 264 270 274 279 277 243 240 253 246 250 263
329 15 43 48 34 27 34 37 38 37 32 29 25 20 18 15 10 1 347 317 278 262 249 234 225 226 224 217 217 224 241 253 261 266 269 270 274 281 288 263 232 235 239 240
101 112 82 58 46 38 37 39 42 41 36 31 26 21 19 15 13 9 360 343 316 284 262 248 239 238 233 224 222 226 237 243 244 255 262 267 272 277 282 289 293 283 243 227
86 90 89 74 55 44 36 32 32 28 23 21 20 16 13 8 3 0 355 345 330 305 289 279 271 267 257 239 230 230 236 243 240 251 259 263 267 271 274 278 281 287 294 261
102 90 77 63 47 34 28 24 20 14 10 8 8 6 3 359 357 356 353 349 339 328 320 308 296 292 280 258 245 240 239 240 243 250 257 259 261 265 272 277 282 286 289 292
91 72 54 41 31 22 16 10 5 358 356 358 356 354 354 354 354 356 353 349 341 331 327 324 319 318 303 281 262 256 253 237 209 233 250 258 265 269 275 279 282 286 289 304
74 62 45 27 11 2 356 354 351 348 347 346 344 347 350 352 351 349 345 341 336 332 336 337 338 325 308 293 276 267 258 254 242 239 248 253 263 269 272 276 279 283 288 276
61 44 25 11 356 347 342 340 340 340 339 339 338 340 341 342 343 339 337 333 331 331 341 339 334 314 309 306 291 269 262 257 252 247 249 244 245 257 265 272 276 282 287 296
35 14 359 350 346 340 333 333 332 332 333 333 331 331 332 333 332 330 328 320 329 340 335 331 322 314 313 316 310 286 270 259 255 254 250 253 254 258 263 270 276 282 289 296
357 345 338 337 336 332 330 327 324 323 324 324 323 322 323 323 322 322 319 317 328 338 329 315 309 317 325 334 306 283 269 258 255 256 259 259 260 264 268 275 281 286 292 302
335 332 330 327 325 323 323 316 311 311 315 317 318 318 317 316 316 315 313 315 319 338 327 320 322 342 339 317 295 283 274 267 263 261 258 262 263 265 275 283 285 287 296 302
321 320 317 316 316 313 308 304 305 308 308 309 308 307 308 311 308 307 309 323 324 336 322 317 335 332 318 303 296 292 288 282 275 268 261 263 270 275 284 291 292 296 305 309
309 310 309 307 306 299 297 301 303 302 299 296 294 297 301 299 299 304 313 320 322 321 312 322 322 317 306 302 309 312 311 304 296 290 285 282 289 294 298 302 300 304 312 317
303 303 300 300 296 296 301 299 296 294 293 295 298 301 299 300 304 311 313 313 317 310 311 320 319 314 308 320 329 331 332 343 339 326 323 328 323 312 310 306 306 317 323 327
296 293 298 297 295 293 291 293 296 299 301 301 302 305 306 306 305 306 306 311 317 316 312 318 325 325 327 334 339 350 356 351 334 331 348 339 331 327 328 327 329 332 329 335
285 284 280 280 285 292 298 300 298 299 300 302 305 308 308 307 307 310 313 315 317 319 325 330 336 343 349 352 360 11 8 1 2 2 358 355 349 347 348 343 343 342 339 348